EZY36YB LFPG-EGGW

Flight info

Callsign EZY36YB
Flight time 1h 17m
Altitude 24000
Route OPALE DCT KESAX DCT KUNAV Y8 BANVA M733 UNDUG
Aircraft A320/M-SDE3FGHIRWY/LB1

Departure

Time 2026-05-04 04:30
Airport Charles de Gaulle International Airport (LFPG)

Arrival

Time 2026-05-04 05:48
Airport London Luton Airport (EGGW)
Time Latitude Longitude Altitude Speed Heading
2026-05-04 04:18 49.01677 2.54401 354 ft 0 kts 200°
2026-05-04 04:22 49.01688 2.54407 359 ft 4 kts 201°
2026-05-04 04:22 49.01712 2.54422 360 ft 4 kts 202°
2026-05-04 04:22 49.01736 2.54436 354 ft 4 kts 208°
2026-05-04 04:22 49.01753 2.54459 354 ft 4 kts 253°
2026-05-04 04:23 49.01753 2.54487 357 ft 1 kts 304°
2026-05-04 04:23 49.01752 2.54487 359 ft 0 kts 304°
2026-05-04 04:25 49.01761 2.54468 358 ft 7 kts 303°
2026-05-04 04:25 49.01785 2.54399 358 ft 7 kts 295°
2026-05-04 04:26 49.01823 2.54381 359 ft 6 kts 54°
2026-05-04 04:26 49.01828 2.54474 362 ft 11 kts 86°
2026-05-04 04:26 49.01836 2.54616 354 ft 15 kts 85°
2026-05-04 04:26 49.01845 2.54805 361 ft 20 kts 86°
2026-05-04 04:27 49.01859 2.55031 361 ft 23 kts 84°
2026-05-04 04:27 49.01872 2.55279 360 ft 24 kts 85°
2026-05-04 04:27 49.01886 2.55540 354 ft 25 kts 86°
2026-05-04 04:27 49.01900 2.55813 354 ft 26 kts 85°
2026-05-04 04:28 49.01913 2.56061 354 ft 21 kts 85°
2026-05-04 04:28 49.01926 2.56243 354 ft 15 kts 72°
2026-05-04 04:28 49.02007 2.56327 354 ft 16 kts
2026-05-04 04:28 49.02115 2.56314 362 ft 16 kts 355°
2026-05-04 04:29 49.02224 2.56289 361 ft 16 kts 340°
2026-05-04 04:29 49.02297 2.56189 358 ft 9 kts 321°
2026-05-04 04:29 49.02321 2.56134 354 ft 6 kts 268°
2026-05-04 04:29 49.02320 2.56123 354 ft 0 kts 265°
2026-05-04 04:30 49.02301 2.55767 355 ft 72 kts 265°
2026-05-04 04:30 49.02242 2.54675 356 ft 133 kts 265°
2026-05-04 04:30 49.02151 2.53016 376 ft 178 kts 264°
2026-05-04 04:30 49.02041 2.51132 997 ft 179 kts 264°
2026-05-04 04:31 49.01933 2.49230 1646 ft 186 kts 264°
2026-05-04 04:31 49.01818 2.47170 2047 ft 205 kts 264°
2026-05-04 04:31 49.01689 2.44898 2435 ft 225 kts 263°
2026-05-04 04:31 49.01765 2.42393 2788 ft 252 kts 285°
2026-05-04 04:32 49.02716 2.40088 3498 ft 266 kts 317°
2026-05-04 04:32 49.04232 2.38450 4463 ft 267 kts 326°
2026-05-04 04:32 49.05855 2.37032 5403 ft 270 kts 329°
2026-05-04 04:32 49.07513 2.35650 6286 ft 274 kts 328°
2026-05-04 04:33 49.09188 2.34219 7123 ft 278 kts 328°
2026-05-04 04:33 49.10871 2.32730 7974 ft 281 kts 327°
2026-05-04 04:33 49.12600 2.31272 8766 ft 288 kts 335°
2026-05-04 04:33 49.14499 2.30205 9540 ft 294 kts 338°
2026-05-04 04:34 49.16453 2.29207 10302 ft 298 kts 339°
2026-05-04 04:34 49.18484 2.28200 10726 ft 318 kts 340°
2026-05-04 04:34 49.20652 2.27127 11082 ft 336 kts 340°
2026-05-04 04:34 49.22896 2.26007 11738 ft 342 kts 340°
2026-05-04 04:35 49.25172 2.24856 12454 ft 346 kts 339°
2026-05-04 04:35 49.27472 2.23678 13165 ft 350 kts 339°
2026-05-04 04:35 49.29795 2.22485 13855 ft 354 kts 339°
2026-05-04 04:35 49.32143 2.21277 14537 ft 358 kts 339°
2026-05-04 04:36 49.34515 2.20051 15201 ft 361 kts 339°
2026-05-04 04:36 49.36903 2.18812 15854 ft 364 kts 338°
2026-05-04 04:36 49.39311 2.17563 16487 ft 367 kts 338°
2026-05-04 04:36 49.41741 2.16301 17093 ft 370 kts 338°
2026-05-04 04:37 49.49114 2.12274 18844 ft 380 kts 335°
2026-05-04 04:37 49.51601 2.10825 19365 ft 384 kts 335°
2026-05-04 04:38 49.54115 2.09349 19865 ft 389 kts 335°
2026-05-04 04:38 49.56656 2.07853 20370 ft 393 kts 335°
2026-05-04 04:38 49.59232 2.06344 20864 ft 398 kts 335°
2026-05-04 04:38 49.61833 2.04832 21346 ft 402 kts 335°
2026-05-04 04:39 49.64472 2.03307 21805 ft 407 kts 335°
2026-05-04 04:39 49.67140 2.01769 22275 ft 411 kts 335°
2026-05-04 04:39 49.69835 2.00216 22729 ft 415 kts 335°
2026-05-04 04:39 49.72559 1.98645 23181 ft 420 kts 335°
2026-05-04 04:40 49.75308 1.97055 23617 ft 424 kts 335°
2026-05-04 04:40 49.78088 1.95443 23905 ft 428 kts 334°
2026-05-04 04:40 49.80861 1.93834 23968 ft 419 kts 334°
2026-05-04 04:40 49.83551 1.92278 23972 ft 408 kts 334°
2026-05-04 04:41 49.86195 1.90741 23970 ft 405 kts 334°
2026-05-04 04:41 49.88804 1.89124 23972 ft 401 kts 328°
2026-05-04 04:41 49.91193 1.86969 23970 ft 394 kts 318°
2026-05-04 04:41 49.93334 1.84369 23971 ft 391 kts 315°
2026-05-04 04:42 49.95459 1.81734 23971 ft 391 kts 315°
2026-05-04 04:42 49.97591 1.79109 23971 ft 391 kts 315°
2026-05-04 04:42 49.99724 1.76487 23968 ft 391 kts 315°
2026-05-04 04:42 50.01856 1.73863 23970 ft 391 kts 315°
2026-05-04 04:43 50.03986 1.71234 23974 ft 390 kts 315°
2026-05-04 04:43 50.06109 1.68609 23973 ft 392 kts 315°
2026-05-04 04:43 50.08244 1.65930 23971 ft 395 kts 314°
2026-05-04 04:43 50.10346 1.63164 23971 ft 395 kts 313°
2026-05-04 04:44 50.12417 1.60347 23969 ft 395 kts 312°
2026-05-04 04:44 50.14473 1.57513 23970 ft 394 kts 312°
2026-05-04 04:44 50.16521 1.54679 23970 ft 394 kts 312°
2026-05-04 04:44 50.18571 1.51847 23970 ft 394 kts 312°
2026-05-04 04:45 50.20625 1.49021 23971 ft 394 kts 313°
2026-05-04 04:45 50.22681 1.46201 23972 ft 393 kts 313°
2026-05-04 04:45 50.24736 1.43393 23971 ft 393 kts 313°
2026-05-04 04:47 50.36996 1.26605 23976 ft 390 kts 313°
2026-05-04 04:47 50.39032 1.23804 23976 ft 389 kts 313°
2026-05-04 04:47 50.41068 1.21004 23976 ft 389 kts 313°
2026-05-04 04:47 50.43098 1.18208 23978 ft 389 kts 313°
2026-05-04 04:48 50.45127 1.15406 23979 ft 388 kts 313°
2026-05-04 04:49 50.51639 1.02621 23977 ft 367 kts 283°
2026-05-04 04:49 50.52256 0.98772 23977 ft 361 kts 274°
2026-05-04 04:49 50.52633 0.94880 23974 ft 360 kts 274°
2026-05-04 04:49 50.53007 0.90985 23970 ft 360 kts 274°
2026-05-04 04:50 50.53378 0.87097 23969 ft 360 kts 274°
2026-05-04 04:50 50.53751 0.83208 23968 ft 360 kts 274°
2026-05-04 04:50 50.54281 0.79349 23965 ft 364 kts 283°
2026-05-04 04:50 50.55316 0.75678 23966 ft 371 kts 295°
2026-05-04 04:51 50.56850 0.72382 23954 ft 378 kts 308°
2026-05-04 04:51 50.58805 0.69580 23961 ft 382 kts 315°
2026-05-04 04:51 50.60836 0.66888 23953 ft 382 kts 315°
2026-05-04 04:51 50.62865 0.64189 23960 ft 382 kts 315°
2026-05-04 04:52 50.64860 0.61525 23972 ft 381 kts 315°
2026-05-04 04:52 50.66911 0.58780 23958 ft 381 kts 314°
2026-05-04 04:52 50.68923 0.56076 23964 ft 381 kts 314°
2026-05-04 04:52 50.70936 0.53361 23966 ft 381 kts 314°
2026-05-04 04:53 50.72949 0.50647 23957 ft 381 kts 315°
2026-05-04 04:53 50.74938 0.47969 23949 ft 381 kts 315°
2026-05-04 04:53 50.76947 0.45262 23959 ft 380 kts 315°
2026-05-04 04:53 50.78959 0.42551 23963 ft 380 kts 315°
2026-05-04 04:54 50.80969 0.39838 23957 ft 380 kts 314°
2026-05-04 04:54 50.82970 0.37138 23787 ft 375 kts 314°
2026-05-04 04:54 50.84930 0.34494 23537 ft 366 kts 314°
2026-05-04 04:54 50.86848 0.31900 23285 ft 360 kts 314°
2026-05-04 04:55 50.88737 0.29342 23019 ft 355 kts 314°
2026-05-04 04:55 50.90608 0.26800 22601 ft 353 kts 314°
2026-05-04 04:55 50.92469 0.24261 22152 ft 352 kts 314°
2026-05-04 04:55 50.94322 0.21727 21712 ft 351 kts 315°
2026-05-04 04:56 50.95546 0.20052 21418 ft 351 kts 315°
2026-05-04 04:56 50.97412 0.17498 20976 ft 350 kts 315°
2026-05-04 04:56 50.99229 0.15016 20549 ft 349 kts 315°
2026-05-04 04:56 51.01065 0.12508 20101 ft 347 kts 315°
2026-05-04 04:57 51.03000 0.10209 19813 ft 345 kts 322°
2026-05-04 04:57 51.04967 0.08059 19707 ft 342 kts 321°
2026-05-04 04:57 51.06913 0.05912 19557 ft 340 kts 321°
2026-05-04 04:57 51.08853 0.03763 19401 ft 339 kts 321°
2026-05-04 04:58 51.10785 0.01621 19262 ft 338 kts 321°
2026-05-04 04:58 51.12715 -0.00517 19097 ft 338 kts 321°
2026-05-04 04:58 51.14640 -0.02653 18946 ft 337 kts 322°
2026-05-04 04:58 51.16559 -0.04788 18790 ft 336 kts 322°
2026-05-04 04:59 51.18468 -0.06918 18641 ft 335 kts 322°
2026-05-04 04:59 51.20372 -0.09049 18496 ft 334 kts 322°
2026-05-04 04:59 51.22275 -0.11178 18334 ft 334 kts 322°
2026-05-04 04:59 51.24174 -0.13296 18186 ft 333 kts 322°
2026-05-04 05:00 51.26074 -0.15407 18036 ft 332 kts 322°
2026-05-04 05:00 51.27965 -0.17510 17888 ft 331 kts 322°
2026-05-04 05:00 51.31734 -0.21717 17587 ft 330 kts 322°
2026-05-04 05:01 51.33610 -0.23822 17440 ft 329 kts 322°
2026-05-04 05:01 51.35482 -0.25925 17288 ft 328 kts 322°
2026-05-04 05:01 51.37345 -0.28023 17147 ft 328 kts 322°
2026-05-04 05:01 51.39207 -0.30122 16992 ft 327 kts 322°
2026-05-04 05:02 51.41197 -0.31982 16838 ft 329 kts 336°
2026-05-04 05:02 51.43389 -0.32868 16695 ft 332 kts 353°
2026-05-04 05:02 51.45694 -0.32717 16544 ft 334 kts 10°
2026-05-04 05:02 51.47890 -0.31518 16393 ft 335 kts 25°
2026-05-04 05:03 51.49991 -0.29902 16234 ft 334 kts 25°
2026-05-04 05:03 51.52117 -0.28267 16083 ft 334 kts 25°
2026-05-04 05:04 51.58384 -0.23469 15632 ft 331 kts 25°
2026-05-04 05:04 51.60461 -0.21882 15479 ft 330 kts 25°
2026-05-04 05:04 51.62534 -0.20291 15327 ft 330 kts 25°
2026-05-04 05:06 51.76467 -0.08189 14333 ft 322 kts 47°
2026-05-04 05:06 51.78015 -0.05572 14192 ft 322 kts 47°
2026-05-04 05:06 51.79559 -0.02971 14058 ft 321 kts 46°
2026-05-04 05:07 51.81107 -0.00373 13922 ft 321 kts 46°
2026-05-04 05:07 51.82653 0.02219 13787 ft 320 kts 46°
2026-05-04 05:07 51.84207 0.04830 13651 ft 324 kts 46°
2026-05-04 05:09 51.98218 0.22541 12542 ft 321 kts 22°
2026-05-04 05:09 52.00258 0.23992 12387 ft 320 kts 22°
2026-05-04 05:10 52.02298 0.25448 12248 ft 320 kts 22°
2026-05-04 05:10 52.04337 0.26902 12108 ft 320 kts 21°
2026-05-04 05:10 52.06374 0.28347 11965 ft 319 kts 20°
2026-05-04 05:10 52.08498 0.29208 11837 ft 313 kts 359°
2026-05-04 05:11 52.10622 0.28814 11693 ft 305 kts 338°
2026-05-04 05:11 52.12480 0.27302 11566 ft 296 kts 318°
2026-05-04 05:11 52.13871 0.24962 11436 ft 289 kts 301°
2026-05-04 05:11 52.15013 0.22264 11311 ft 289 kts 301°
2026-05-04 05:12 52.16156 0.19565 11183 ft 289 kts 301°
2026-05-04 05:12 52.17301 0.16870 11060 ft 289 kts 301°
2026-05-04 05:12 52.18444 0.14176 10924 ft 289 kts 301°
2026-05-04 05:12 52.19583 0.11487 10812 ft 288 kts 301°
2026-05-04 05:13 52.20723 0.08797 10688 ft 288 kts 301°
2026-05-04 05:13 52.21861 0.06113 10561 ft 287 kts 301°
2026-05-04 05:13 52.22993 0.03434 10443 ft 287 kts 301°
2026-05-04 05:13 52.24120 0.00756 10301 ft 283 kts 301°
2026-05-04 05:14 52.25214 -0.01845 10182 ft 273 kts 302°
2026-05-04 05:14 52.26265 -0.04352 10067 ft 263 kts 302°
2026-05-04 05:14 52.27038 -0.06986 9861 ft 254 kts 285°
2026-05-04 05:14 52.27501 -0.09729 9809 ft 251 kts 285°
2026-05-04 05:15 52.27975 -0.12472 9742 ft 251 kts 285°
2026-05-04 05:15 52.28456 -0.15215 9642 ft 251 kts 285°
2026-05-04 05:15 52.28936 -0.17959 9541 ft 251 kts 285°
2026-05-04 05:15 52.29414 -0.20699 9434 ft 251 kts 285°
2026-05-04 05:16 52.29888 -0.23430 9333 ft 250 kts 285°
2026-05-04 05:16 52.30361 -0.26160 9231 ft 250 kts 285°
2026-05-04 05:16 52.30832 -0.28890 9127 ft 250 kts 285°
2026-05-04 05:16 52.31301 -0.31621 9027 ft 250 kts 285°
2026-05-04 05:17 52.31768 -0.34350 8913 ft 249 kts 285°
2026-05-04 05:17 52.32235 -0.37079 8810 ft 249 kts 285°
2026-05-04 05:17 52.32700 -0.39799 8704 ft 248 kts 285°
2026-05-04 05:17 52.33276 -0.42448 8628 ft 248 kts 299°
2026-05-04 05:18 52.34366 -0.44615 8566 ft 248 kts 321°
2026-05-04 05:18 52.35867 -0.45991 8515 ft 249 kts 341°
2026-05-04 05:18 52.37578 -0.46399 8463 ft 250 kts
2026-05-04 05:18 52.39272 -0.45762 8408 ft 252 kts 24°
2026-05-04 05:19 52.40706 -0.44146 8355 ft 252 kts 46°
2026-05-04 05:19 52.41683 -0.41770 8293 ft 253 kts 68°
2026-05-04 05:19 52.42063 -0.38976 8240 ft 253 kts 90°
2026-05-04 05:19 52.41795 -0.36153 8178 ft 252 kts 111°
2026-05-04 05:20 52.40921 -0.33692 8065 ft 251 kts 133°
2026-05-04 05:20 52.39569 -0.31936 7995 ft 249 kts 151°
2026-05-04 05:20 52.38062 -0.30522 7998 ft 250 kts 150°
2026-05-04 05:20 52.36558 -0.29086 7998 ft 250 kts 150°
2026-05-04 05:21 52.35054 -0.27646 7996 ft 250 kts 150°
2026-05-04 05:21 52.33551 -0.26203 7990 ft 250 kts 150°
2026-05-04 05:21 52.32051 -0.24758 7986 ft 250 kts 150°
2026-05-04 05:21 52.30543 -0.23413 7984 ft 250 kts 159°
2026-05-04 05:22 52.28872 -0.22673 7988 ft 249 kts 171°
2026-05-04 05:22 52.27165 -0.22193 7988 ft 249 kts 171°
2026-05-04 05:22 52.25453 -0.21709 7986 ft 250 kts 171°
2026-05-04 05:22 52.23744 -0.21221 7984 ft 249 kts 171°
2026-05-04 05:23 52.22035 -0.20730 7983 ft 249 kts 171°
2026-05-04 05:23 52.20327 -0.20239 7980 ft 249 kts 171°
2026-05-04 05:23 52.18612 -0.19741 7856 ft 253 kts 170°
2026-05-04 05:23 52.16880 -0.19211 7488 ft 252 kts 169°
2026-05-04 05:24 52.15158 -0.18668 7114 ft 251 kts 169°
2026-05-04 05:24 52.13446 -0.18123 6719 ft 251 kts 169°
2026-05-04 05:24 52.11732 -0.17768 6361 ft 249 kts 183°
2026-05-04 05:24 52.10065 -0.18378 6000 ft 246 kts 205°
2026-05-04 05:25 52.08683 -0.19916 5781 ft 239 kts 227°
2026-05-04 05:25 52.07576 -0.21928 5607 ft 239 kts 229°
2026-05-04 05:25 52.06470 -0.23944 5411 ft 239 kts 229°
2026-05-04 05:25 52.05362 -0.25955 5230 ft 239 kts 229°
2026-05-04 05:26 52.04254 -0.27962 5080 ft 238 kts 229°
2026-05-04 05:26 52.03149 -0.29969 5013 ft 238 kts 229°
2026-05-04 05:26 52.02045 -0.31974 5013 ft 239 kts 229°
2026-05-04 05:26 52.00935 -0.33986 5014 ft 239 kts 229°
2026-05-04 05:27 51.99909 -0.36101 5013 ft 238 kts 241°
2026-05-04 05:28 51.94506 -0.52331 5015 ft 237 kts 232°
2026-05-04 05:29 51.93486 -0.54428 5015 ft 236 kts 232°
2026-05-04 05:29 51.92466 -0.56522 5015 ft 237 kts 232°
2026-05-04 05:29 51.91461 -0.58587 5014 ft 237 kts 232°
2026-05-04 05:29 51.90462 -0.60707 5012 ft 237 kts 238°
2026-05-04 05:31 51.85490 -0.75575 4767 ft 228 kts 173°
2026-05-04 05:31 51.83948 -0.75067 4500 ft 225 kts 164°
2026-05-04 05:32 51.82504 -0.74176 4245 ft 221 kts 143°
2026-05-04 05:32 51.81637 -0.72237 4018 ft 213 kts 103°
2026-05-04 05:32 51.81667 -0.69926 3811 ft 205 kts 73°
2026-05-04 05:33 51.82445 -0.65582 3386 ft 198 kts 72°
2026-05-04 05:33 51.82822 -0.63455 3196 ft 196 kts 72°
2026-05-04 05:33 51.83192 -0.61349 3065 ft 194 kts 72°
2026-05-04 05:33 51.83550 -0.59305 3030 ft 185 kts 72°
2026-05-04 05:34 51.83901 -0.57303 2857 ft 184 kts 72°
2026-05-04 05:34 51.84250 -0.55313 2643 ft 183 kts 72°
2026-05-04 05:34 51.84593 -0.53349 2413 ft 179 kts 72°
2026-05-04 05:34 51.84924 -0.51451 2171 ft 170 kts 72°
2026-05-04 05:35 51.85230 -0.49687 1959 ft 156 kts 72°
2026-05-04 05:35 51.85519 -0.48035 1763 ft 150 kts 74°
2026-05-04 05:35 51.85802 -0.46422 1572 ft 148 kts 71°
2026-05-04 05:35 51.86076 -0.44844 1376 ft 148 kts 72°
2026-05-04 05:36 51.86353 -0.43248 1179 ft 145 kts 72°
2026-05-04 05:36 51.86656 -0.41585 1622 ft 157 kts 70°
2026-05-04 05:36 51.86975 -0.39822 1950 ft 179 kts 72°
2026-05-04 05:36 51.87322 -0.37787 2194 ft 196 kts 73°
2026-05-04 05:37 51.87696 -0.35562 2434 ft 211 kts 73°
2026-05-04 05:37 51.87838 -0.33183 2647 ft 218 kts 100°
2026-05-04 05:37 51.87142 -0.31026 2887 ft 223 kts 134°
2026-05-04 05:38 51.84299 -0.29096 2997 ft 225 kts 179°
2026-05-04 05:38 51.82809 -0.29747 3012 ft 225 kts 213°
2026-05-04 05:38 51.81653 -0.31431 3022 ft 222 kts 229°
2026-05-04 05:38 51.80752 -0.33449 3013 ft 223 kts 245°
2026-05-04 05:39 51.80156 -0.35767 3015 ft 224 kts 250°
2026-05-04 05:39 51.79083 -0.40491 3019 ft 224 kts 251°
2026-05-04 05:39 51.78551 -0.42850 3017 ft 225 kts 251°
2026-05-04 05:40 51.77480 -0.47577 3013 ft 224 kts 251°
2026-05-04 05:40 51.76947 -0.49934 3013 ft 224 kts 251°
2026-05-04 05:40 51.76413 -0.52293 3011 ft 224 kts 251°
2026-05-04 05:41 51.75880 -0.54653 3017 ft 224 kts 251°
2026-05-04 05:41 51.75528 -0.56214 3013 ft 223 kts 251°
2026-05-04 05:41 51.74994 -0.58572 3017 ft 224 kts 251°
2026-05-04 05:41 51.74462 -0.60929 3014 ft 223 kts 251°
2026-05-04 05:42 51.74059 -0.63334 3009 ft 222 kts 271°
2026-05-04 05:42 51.74442 -0.65681 3000 ft 218 kts 306°
2026-05-04 05:42 51.75544 -0.67226 3006 ft 214 kts 335°
2026-05-04 05:42 51.76953 -0.68127 3013 ft 215 kts 342°
2026-05-04 05:43 51.78327 -0.68870 3004 ft 200 kts 346°
2026-05-04 05:43 51.79653 -0.69069 3037 ft 188 kts
2026-05-04 05:43 51.80884 -0.68462 3027 ft 184 kts 28°
2026-05-04 05:45 51.84228 -0.55434 2663 ft 183 kts 73°
2026-05-04 05:45 51.84574 -0.53454 2428 ft 183 kts 72°
2026-05-04 05:47 51.86633 -0.41633 995 ft 146 kts 72°
2026-05-04 05:47 51.86907 -0.40062 793 ft 145 kts 72°
2026-05-04 05:47 51.87180 -0.38496 595 ft 144 kts 72°
2026-05-04 05:48 51.87430 -0.37037 523 ft 113 kts 75°
2026-05-04 05:48 51.87594 -0.36084 516 ft 61 kts 75°
2026-05-04 05:48 51.87643 -0.35743 513 ft 11 kts 79°
2026-05-04 05:48 51.87663 -0.35755 514 ft 3 kts 262°
2026-05-04 05:49 51.87646 -0.35831 515 ft 15 kts 248°
2026-05-04 05:49 51.87698 -0.35935 516 ft 14 kts 347°
2026-05-04 05:49 51.87779 -0.36011 517 ft 14 kts 295°
2026-05-04 05:49 51.87768 -0.36169 518 ft 16 kts 255°
2026-05-04 05:51 51.87954 -0.37098 509 ft 16 kts 342°
2026-05-04 05:51 51.88058 -0.37154 508 ft 14 kts 341°
2026-05-04 05:52 51.88145 -0.37199 513 ft 12 kts 342°
2026-05-04 05:52 51.88212 -0.37238 517 ft 10 kts 330°
2026-05-04 05:52 51.88227 -0.37343 517 ft 11 kts 255°
2026-05-04 05:52 51.88204 -0.37463 516 ft 8 kts 261°
2026-05-04 05:53 51.88210 -0.37550 516 ft 1 kts 276°
2026-05-04 05:54 51.88154 -0.37563 517 ft 1 kts 202°
2026-05-04 05:55 51.88152 -0.37564 517 ft 0 kts 202°